• In Russia
  • List of Countries
  • For 7 days
  • Water Temperature
  • Satellite Maps
  • Weather Map
  • Weather Widgets
  • user-avatar
    Login

    Hourly Weather Slobozia-Dusca

    Today, 16 October, Tuesday

    Time Temperature Precipitation Wind Pressure Humidity
    00:00 +15°C° 0 mm 1 mps 766 mmHg 63%
    01:00 +14°C° 0 mm 1 mps 766 mmHg 65%
    02:00 +14°C° 0 mm 1 mps 766 mmHg 68%
    03:00 +13°C° 0 mm 1 mps 766 mmHg 69%
    04:00 +13°C° 0 mm 1 mps 766 mmHg 70%
    05:00 +13°C° 0 mm 1 mps 766 mmHg 71%
    06:00 +14°C° 0 mm 1 mps 766 mmHg 68%
    07:00 +15°C° 0 mm 1 mps 766 mmHg 65%
    08:00 +15°C° 0 mm 2 mps 766 mmHg 62%
    09:00 +18°C° 0 mm 2 mps 766 mmHg 55%
    10:00 +20°C° 0 mm 2 mps 766 mmHg 48%
    11:00 +22°C° 0 mm 3 mps 766 mmHg 40%
    12:00 +24°C° 0 mm 3 mps 766 mmHg 37%
    13:00 +25°C° 0 mm 3 mps 765 mmHg 35%
    14:00 +26°C° 0 mm 3 mps 765 mmHg 32%
    15:00 +25°C° 0 mm 3 mps 765 mmHg 35%
    16:00 +24°C° 0 mm 2 mps 765 mmHg 38%
    17:00 +23°C° 0 mm 2 mps 765 mmHg 41%
    18:00 +21°C° 0 mm 2 mps 765 mmHg 44%
    19:00 +21°C° 0 mm 1 mps 765 mmHg 46%
    20:00 +20°C° 0 mm 1 mps 765 mmHg 49%
    21:00 +19°C° 0 mm 1 mps 765 mmHg 51%
    22:00 +19°C° 0 mm 1 mps 765 mmHg 53%
    23:00 +18°C° 0 mm 1 mps 765 mmHg 55%

    Tomorrow, 17 October, Wednesday

    Time Temperature Precipitation Wind Pressure Humidity
    00:00 +18°C° 0 mm 1 mps 765 mmHg 58%
    01:00 +18°C° 0 mm 1 mps 765 mmHg 61%
    02:00 +16°C° 0 mm 1 mps 765 mmHg 63%
    03:00 +16°C° 0 mm 1 mps 765 mmHg 65%
    04:00 +15°C° 0 mm 1 mps 765 mmHg 67%
    05:00 +15°C° 0 mm 1 mps 764 mmHg 70%
    06:00 +15°C° 0 mm 2 mps 765 mmHg 68%
    07:00 +16°C° 0 mm 2 mps 765 mmHg 66%
    08:00 +17°C° 0 mm 2 mps 765 mmHg 64%
    09:00 +19°C° 0 mm 3 mps 765 mmHg 58%
    10:00 +21°C° 0 mm 3 mps 765 mmHg 51%
    11:00 +23°C° 0 mm 4 mps 765 mmHg 44%
    12:00 +23°C° 0 mm 4 mps 764 mmHg 41%
    13:00 +25°C° 0 mm 4 mps 764 mmHg 39%
    14:00 +26°C° 0 mm 4 mps 764 mmHg 36%
    15:00 +25°C° 0 mm 3 mps 764 mmHg 39%
    16:00 +24°C° 0 mm 3 mps 763 mmHg 42%
    17:00 +21°C° 0 mm 2 mps 763 mmHg 45%
    18:00 +20°C° 0 mm 2 mps 763 mmHg 48%
    19:00 +19°C° 0 mm 2 mps 763 mmHg 51%
    20:00 +18°C° 0 mm 2 mps 764 mmHg 54%
    21:00 +18°C° 0 mm 2 mps 764 mmHg 55%
    22:00 +17°C° 0 mm 2 mps 764 mmHg 56%
    23:00 +17°C° 0 mm 2 mps 764 mmHg 57%

    Day after tomorrow, 18 October, Thursday

    Time Temperature Precipitation Wind Pressure Humidity
    00:00 +16°C° 0 mm 2 mps 763 mmHg 59%
    01:00 +16°C° 0 mm 2 mps 763 mmHg 60%
    02:00 +15°C° 0 mm 2 mps 763 mmHg 61%
    03:00 +15°C° 0 mm 2 mps 763 mmHg 62%
    04:00 +14°C° 0 mm 2 mps 763 mmHg 64%
    05:00 +14°C° 0 mm 2 mps 763 mmHg 65%
    06:00 +14°C° 0 mm 2 mps 763 mmHg 63%
    07:00 +15°C° 0 mm 2 mps 763 mmHg 61%
    08:00 +16°C° 0 mm 3 mps 763 mmHg 60%
    09:00 +18°C° 0 mm 3 mps 763 mmHg 53%
    10:00 +20°C° 0 mm 3 mps 763 mmHg 47%
    11:00 +22°C° 0 mm 4 mps 762 mmHg 41%
    12:00 +22°C° 0 mm 3 mps 762 mmHg 38%
    13:00 +24°C° 0 mm 3 mps 762 mmHg 35%
    14:00 +25°C° 0 mm 3 mps 761 mmHg 32%
    15:00 +24°C° 0 mm 3 mps 761 mmHg 35%
    16:00 +23°C° 0 mm 2 mps 761 mmHg 37%
    17:00 +21°C° 0 mm 2 mps 761 mmHg 40%
    18:00 +20°C° 0 mm 1 mps 761 mmHg 43%
    19:00 +19°C° 0 mm 1 mps 761 mmHg 45%
    20:00 +18°C° 0 mm 1 mps 761 mmHg 48%
    21:00 +18°C° 0 mm 1 mps 761 mmHg 50%
    22:00 +16°C° 0 mm 1 mps 761 mmHg 51%
    23:00 +16°C° 0 mm 1 mps 761 mmHg 53%

    19 October, Friday

    Time Temperature Precipitation Wind Pressure Humidity
    00:00 +15°C° 0 mm 1 mps 761 mmHg 54%
    01:00 +15°C° 0 mm 1 mps 761 mmHg 55%
    02:00 +15°C° 0 mm 1 mps 761 mmHg 56%
    03:00 +14°C° 0 mm 1 mps 761 mmHg 57%
    04:00 +14°C° 0 mm 1 mps 760 mmHg 57%
    05:00 +14°C° 0 mm 1 mps 760 mmHg 58%
    06:00 +14°C° 0 mm 1 mps 760 mmHg 57%
    07:00 +15°C° 0 mm 1 mps 760 mmHg 55%
    08:00 +16°C° 0 mm 1 mps 760 mmHg 54%
    09:00 +18°C° 0 mm 1 mps 760 mmHg 49%
    10:00 +19°C° 0 mm 2 mps 760 mmHg 44%
    11:00 +21°C° 0 mm 2 mps 760 mmHg 39%
    12:00 +21°C° 0 mm 2 mps 760 mmHg 37%
    13:00 +23°C° 0 mm 2 mps 760 mmHg 35%
    14:00 +24°C° 0 mm 2 mps 759 mmHg 32%
    15:00 +23°C° 0 mm 2 mps 759 mmHg 35%
    16:00 +21°C° 0 mm 2 mps 759 mmHg 37%
    17:00 +20°C° 0 mm 2 mps 759 mmHg 39%
    18:00 +19°C° 0 mm 2 mps 759 mmHg 41%
    19:00 +18°C° 0 mm 2 mps 759 mmHg 43%
    20:00 +17°C° 0 mm 2 mps 759 mmHg 45%
    21:00 +17°C° 0 mm 2 mps 759 mmHg 46%
    22:00 +17°C° 0 mm 2 mps 759 mmHg 48%
    23:00 +16°C° 0 mm 2 mps 759 mmHg 49%

    20 October, Saturday

    Time Temperature Precipitation Wind Pressure Humidity
    00:00 +16°C° 0 mm 2 mps 759 mmHg 52%
    01:00 +15°C° 0 mm 2 mps 759 mmHg 54%
    02:00 +15°C° 0 mm 2 mps 759 mmHg 57%
    03:00 +15°C° 0 mm 2 mps 759 mmHg 60%
    04:00 +13°C° 0 mm 3 mps 759 mmHg 62%
    05:00 +13°C° 0 mm 3 mps 759 mmHg 65%
    06:00 +14°C° 0 mm 3 mps 759 mmHg 66%
    07:00 +14°C° 0 mm 4 mps 760 mmHg 67%
    08:00 +15°C° 0 mm 4 mps 760 mmHg 69%
    09:00 +17°C° 0 mm 4 mps 760 mmHg 65%
    10:00 +18°C° 0 mm 4 mps 760 mmHg 61%
    11:00 +19°C° 0 mm 4 mps 760 mmHg 58%
    12:00 +19°C° 0 mm 5 mps 760 mmHg 56%
    13:00 +20°C° 0 mm 5 mps 759 mmHg 54%
    14:00 +20°C° 0 mm 5 mps 759 mmHg 52%
    15:00 +20°C° 0 mm 4 mps 759 mmHg 54%
    16:00 +19°C° 0 mm 4 mps 759 mmHg 57%
    17:00 +18°C° 0 mm 3 mps 759 mmHg 59%
    18:00 +17°C° 0.1 mm 3 mps 759 mmHg 63%
    19:00 +16°C° 0.1 mm 3 mps 759 mmHg 67%
    20:00 +14°C° 0.1 mm 3 mps 760 mmHg 71%
    21:00 +14°C° 0 mm 3 mps 760 mmHg 73%
    22:00 +14°C° 0 mm 3 mps 760 mmHg 74%
    23:00 +13°C° 0 mm 3 mps 760 mmHg 76%

    21 October, Sunday

    Time Temperature Precipitation Wind Pressure Humidity
    00:00 +13°C° 0 mm 3 mps 760 mmHg 77%
    01:00 +13°C° 0 mm 3 mps 760 mmHg 78%
    02:00 +12°C° 0 mm 3 mps 759 mmHg 79%
    03:00 +12°C° 0 mm 3 mps 759 mmHg 81%
    04:00 +11°C° 0 mm 3 mps 759 mmHg 82%
    05:00 +11°C° 0 mm 3 mps 759 mmHg 84%
    06:00 +11°C° 0 mm 3 mps 760 mmHg 83%
    07:00 +11°C° 0 mm 4 mps 760 mmHg 83%
    08:00 +12°C° 0 mm 4 mps 760 mmHg 82%
    09:00 +13°C° 0 mm 4 mps 760 mmHg 76%
    10:00 +14°C° 0 mm 4 mps 760 mmHg 70%
    11:00 +16°C° 0 mm 5 mps 759 mmHg 63%
    12:00 +16°C° 0 mm 5 mps 759 mmHg 62%
    13:00 +16°C° 0 mm 5 mps 759 mmHg 60%
    14:00 +16°C° 0 mm 5 mps 759 mmHg 58%
    15:00 +15°C° 0 mm 4 mps 759 mmHg 61%
    16:00 +15°C° 0 mm 4 mps 759 mmHg 63%
    17:00 +14°C° 0 mm 3 mps 759 mmHg 65%
    18:00 +14°C° 0 mm 3 mps 759 mmHg 67%
    19:00 +13°C° 0 mm 3 mps 759 mmHg 68%
    20:00 +13°C° 0 mm 3 mps 760 mmHg 70%
    21:00 +13°C° 0.1 mm 3 mps 760 mmHg 72%
    22:00 +12°C° 0.1 mm 3 mps 760 mmHg 74%
    23:00 +12°C° 0.1 mm 3 mps 760 mmHg 76%
    Show more